Orbital Elements at Epoch 2459200.5 (2020-Dec-17.0) TDB
Reference: JPL 25 (heliocentric ecliptic J2000)
Element | Value | Uncertainty (1-sigma) | Units |
e | .1932381873792227 | 8.9003e-08 | |
a | 2.534119066565412 | 9.3816e-09 | au |
q | 2.044430491539184 | 2.2976e-07 | au |
i | 11.70705779270164 | 6.0176e-06 | deg |
node | 122.0797962334523 | 1.6286e-05 | deg |
peri | 25.30622082624667 | 2.0604e-05 | deg |
M | 68.35767508998828 | 8.7325e-06 | deg |
tp | 2458920.715446265085 (2020-Mar-12.21544626) | 3.572e-05 | TDB |
period | 1473.462039368297 4.03 | 8.1824e-06 2.24e-08 | d yr |
n | .2443225481087652 | 1.3568e-09 | deg/d |
Q | 3.02380764159164 | 1.1194e-08 | au |
|
| | Orbit Determination Parameters
Additional Information
|